Location: Franzen
(48.6167°N, 15.3833°E)
Time: 12:08:30
(UTC+00:00)

Cosmos 1980 - Pass Details

Date: 22 April 2021
Orbit: 838 x 848 km, 71.0° (Epoch: 16 May)

Event Time Altitude Azimuth Distance (km) Brightness Sun altitude
Rises 19:31:15 0° 328° (NNW) 3,420 8.3 -13.9°
Reaches altitude 10° 19:33:46 10° 324° (NW) 2,481 7.4 -14.2°
Maximum altitude 19:39:15 52° 250° (WSW) 1,053 4.4 -14.9°
Enters shadow 19:44:20 12° 176° (S) 2,325 5.6 -15.6°
